{"data":{"norad_id":68091,"epoch":"2026-05-25T01:49:38.669664Z","epoch_age_seconds":82563,"freshness":"FRESH","line1":"1 68091U 26042Y   26145.07614201  .00016749  00000+0  50568-3 0  9990","line2":"2 68091  53.1580 182.9638 0001306  81.5486 278.5665 15.34403025 14019","mean_motion":15.34403025,"eccentricity":0.0001306,"inclination_deg":53.158,"raan_deg":182.9638,"arg_perigee_deg":81.5486,"mean_anomaly_deg":278.5665,"bstar":0.00050568,"rev_number":1401,"period_min":93.847573065101,"perigee_km":461.80083672323,"apogee_km":463.58766184554,"semimajor_km":6840.8312492844,"source":"CELESTRAK","updated_at":"2026-05-25T13:38:21.838876Z"}}